Theta_e
316 315 316 316 317 317 318 318 318 318 318 318 318 318 318 318 318 310 298 305 311 317 319 307 303 300 299 299 303 302 292 288 290 291 293 297 295 299 299 297 298 303 301 306 307
316 316 316 316 316 316 317 317 318 318 318 318 318 318 318 317 311 300 308 313 315 317 305 300 298 297 292 296 299 295 288 291 293 292 292 296 295 294 294 294 294 297 302 306 306
316 316 317 317 317 317 317 317 317 317 318 318 318 318 318 316 304 298 311 313 314 315 305 302 300 297 292 295 295 295 291 294 294 295 295 294 294 294 291 291 294 293 295 301 300
316 316 317 317 317 317 317 318 317 317 317 318 318 318 318 309 292 300 314 318 317 311 303 299 298 293 291 291 295 290 295 296 298 297 295 293 294 292 293 294 297 295 295 295 299
317 317 317 317 317 317 318 318 318 317 317 317 317 317 309 299 295 302 312 310 306 302 299 299 296 294 291 293 293 291 292 294 295 295 294 295 292 291 292 294 296 296 296 294 294
318 317 317 317 317 318 318 318 318 317 316 317 317 317 304 292 301 302 302 303 302 301 299 300 298 298 293 292 291 293 293 292 293 292 293 291 289 290 291 293 294 295 294 294 294
318 317 317 317 318 318 318 318 318 316 314 315 315 310 300 294 299 300 301 300 301 300 299 300 300 296 294 291 295 293 288 290 290 291 290 288 286 287 292 294 292 292 292 293 293
318 317 317 318 318 318 318 318 318 313 313 313 312 303 293 300 298 300 300 299 302 302 301 301 301 297 294 294 292 287 286 283 288 288 289 286 284 290 291 291 291 291 291 292 293
319 318 318 318 318 318 318 319 317 312 312 313 302 296 291 304 297 299 298 297 299 300 300 301 298 292 291 286 284 285 280 283 284 287 287 285 283 289 290 290 289 290 289 290 290
318 318 319 319 319 318 318 317 313 306 307 305 300 291 292 293 297 298 298 298 297 296 296 295 291 286 285 283 278 283 280 283 281 285 286 284 285 289 290 290 290 289 289 288 289
317 319 319 319 319 319 313 303 298 297 297 292 292 292 294 297 299 297 298 296 295 292 285 290 284 281 284 285 284 283 281 280 284 286 284 283 284 287 289 288 288 288 289 290 289
316 317 318 319 319 318 308 295 293 293 289 295 295 294 297 296 291 294 297 290 290 285 287 284 280 285 288 287 285 283 280 280 285 287 283 282 283 288 289 288 288 288 287 288 289
314 315 317 317 316 309 298 297 301 298 287 292 294 294 294 295 290 291 293 290 286 284 285 282 284 288 286 284 283 281 281 280 280 283 285 281 281 287 289 287 288 289 288 289 288
310 312 315 315 309 303 298 302 302 297 285 290 289 292 294 293 288 294 294 290 287 283 284 283 285 285 282 283 284 279 283 283 282 277 273 280 273 280 287 286 287 287 286 287 288
309 310 313 314 304 301 302 301 298 296 278 289 287 294 293 289 289 290 293 290 284 285 283 281 282 281 282 283 285 282 284 282 281 277 271 275 271 279 287 284 286 286 287 286 288
307 310 313 309 306 302 301 298 296 286 278 284 288 286 286 288 289 290 289 291 289 285 284 282 286 285 284 285 285 286 282 281 280 275 268 272 274 279 282 284 286 287 287 288 289
306 308 310 307 302 304 303 298 283 283 288 282 282 286 284 283 285 286 285 282 282 278 278 281 281 284 286 282 285 284 279 271 272 272 270 277 272 280 285 286 286 287 287 287 288
304 307 309 306 304 302 300 289 278 277 286 286 285 285 283 283 282 284 281 280 283 281 277 277 277 282 285 283 281 280 279 276 268 271 273 276 272 282 286 286 286 288 288 288 288
303 303 304 304 305 301 294 275 276 281 289 283 285 281 281 281 281 281 281 280 283 283 278 278 278 283 285 285 283 280 277 281 270 264 269 273 280 285 286 285 286 286 287 287 287
295 299 300 306 304 299 288 282 280 291 291 288 283 285 281 280 279 278 280 283 283 285 285 281 276 281 282 284 284 282 283 277 277 269 265 273 275 279 281 283 285 286 285 285 286
293 289 298 303 301 294 284 280 284 291 293 288 283 283 284 280 281 277 279 283 284 283 284 281 280 278 281 279 279 277 278 279 280 278 270 269 275 283 282 284 285 286 286 287 287
292 282 298 301 288 285 285 285 290 289 292 290 286 285 284 283 280 279 279 284 287 284 280 282 280 273 277 279 281 281 280 279 274 272 274 274 273 286 286 286 287 289 289 289 289
288 285 296 297 282 283 286 285 289 286 288 287 286 286 286 284 276 281 278 284 285 283 281 282 274 267 274 278 279 277 279 280 278 277 272 272 275 286 285 285 290 287 288 288 288
288 281 286 289 288 283 281 283 282 288 288 289 288 288 282 281 283 275 278 284 284 280 289 287 278 274 271 276 278 276 277 279 277 268 272 275 276 283 286 285 286 286 285 285 286
285 281 281 270 282 284 285 281 277 278 287 288 283 284 282 276 279 275 279 282 283 286 284 282 271 275 275 280 280 280 280 278 276 277 273 279 278 283 285 284 285 284 283 283 283
282 279 279 277 281 280 283 281 281 283 282 280 282 284 284 279 281 276 281 281 281 282 281 281 277 271 268 273 279 279 280 280 279 279 278 279 279 286 286 285 283 281 279 281 281
290 287 284 280 278 280 280 280 280 283 284 287 285 284 280 284 287 287 287 286 283 280 277 276 271 267 265 270 268 270 275 279 280 281 281 277 282 286 284 283 282 278 280 281 281
Wind_Speed
9 9 10 10 11 12 12 13 13 13 13 14 14 15 16 16 15 0 3 4 6 13 12 7 5 3 1 2 2 3 4 3 4 6 1 3 3 4 1 1 3 2 2 6 9
10 11 11 11 12 12 13 13 13 13 13 13 14 14 15 16 3 5 1 7 8 10 5 7 4 1 3 2 1 4 3 5 1 1 2 5 4 2 2 4 4 4 3 8 9
11 12 13 14 14 14 14 14 14 14 14 13 13 12 13 10 1 1 5 7 8 7 5 4 5 1 2 3 3 4 6 2 1 2 4 5 6 4 3 6 9 5 1 6 3
10 11 12 13 14 15 15 15 15 15 14 13 13 13 13 1 0 2 7 8 9 6 4 3 4 1 3 4 4 3 6 3 1 2 3 4 6 8 7 9 4 2 3 4 6
9 10 12 12 13 14 15 16 16 15 14 13 12 10 4 0 1 3 7 9 6 5 2 3 1 1 2 3 2 3 4 5 5 5 4 3 7 8 13 13 10 9 6 5 7
9 9 10 12 14 15 16 16 18 18 15 12 10 7 1 0 2 5 5 5 6 5 4 5 1 1 2 2 2 1 4 7 6 4 4 5 4 3 8 6 7 10 11 8 8
8 9 11 13 15 16 17 18 17 16 12 6 5 3 2 2 2 4 5 1 2 3 2 3 4 2 2 2 3 2 5 6 3 2 3 3 6 10 13 3 2 4 5 5 7
9 10 11 12 15 18 20 20 17 10 6 4 2 1 2 1 2 4 7 2 1 2 2 2 4 3 0 3 2 2 2 3 1 2 1 2 9 6 2 7 9 8 7 8 7
11 10 10 11 13 16 19 20 14 7 5 3 1 2 2 1 0 2 2 2 5 3 1 2 1 0 2 2 4 2 3 5 3 0 2 4 9 6 3 2 7 9 9 9 9
12 10 9 10 12 16 19 19 1 4 3 2 3 2 1 2 1 2 2 2 1 3 4 1 1 2 3 4 5 4 3 3 1 1 3 5 19 17 12 14 15 9 9 9 9
12 11 9 10 12 15 11 5 5 1 2 4 2 2 3 2 2 2 1 4 2 1 3 3 4 6 7 5 1 2 1 3 3 2 4 5 12 22 9 10 10 8 7 7 7
15 12 10 11 12 15 5 4 2 3 7 1 0 1 3 0 1 1 5 1 4 3 4 3 5 2 4 3 2 1 0 5 4 2 2 5 16 19 10 5 4 5 7 7 6
17 16 11 9 11 5 4 2 3 3 1 2 1 1 1 1 1 2 2 2 4 3 6 5 1 2 1 2 2 1 3 2 4 6 3 8 9 8 4 2 4 4 4 5 8
17 17 14 16 3 4 2 1 2 2 4 3 3 1 0 1 1 1 2 2 2 2 1 2 1 1 1 3 5 3 0 2 3 6 2 5 7 10 6 2 1 1 4 6 6
18 18 17 11 3 2 1 4 3 2 3 2 2 0 2 2 4 1 1 2 1 0 6 2 3 1 2 1 1 2 2 3 2 5 5 7 5 12 5 3 2 4 4 5 6
19 18 14 3 2 1 1 3 2 5 9 1 2 3 2 2 2 3 1 2 1 2 1 2 2 3 3 2 4 3 3 3 4 4 4 5 5 8 1 4 4 2 5 7 7
18 19 4 2 2 4 1 2 5 5 3 4 2 1 1 3 2 1 2 2 5 4 2 0 1 1 1 3 2 2 4 4 6 4 5 2 4 10 9 6 3 4 4 4 5
19 19 4 1 2 3 1 5 5 5 5 3 1 2 3 3 2 3 2 2 4 2 2 5 5 1 1 1 3 5 5 5 6 1 4 4 6 3 6 7 7 9 7 7 7
18 2 3 2 0 2 4 2 9 7 4 5 1 2 1 1 2 1 5 4 3 5 7 3 1 0 3 2 2 3 2 4 7 2 4 4 7 1 7 9 10 9 9 5 4
3 3 1 2 2 2 3 8 5 4 4 4 5 4 5 3 2 2 3 2 3 1 3 1 2 1 1 0 2 1 3 3 3 1 4 6 5 5 4 5 5 6 5 1 1
2 2 1 5 2 2 7 8 6 6 4 5 5 2 5 5 5 3 4 2 2 2 2 2 4 1 2 4 6 1 1 1 2 4 5 2 7 6 7 7 4 2 3 5 7
3 3 2 2 3 2 10 5 5 4 3 4 4 7 6 6 5 3 7 5 2 6 6 3 4 4 4 1 1 1 4 5 5 5 2 3 8 6 6 7 3 8 5 5 5
3 4 1 1 7 7 3 4 5 3 5 6 6 7 5 6 0 6 3 1 2 5 7 5 1 3 7 3 3 3 3 3 3 3 5 4 7 2 4 6 8 9 12 8 7
1 4 2 1 2 4 9 6 6 4 5 4 5 5 4 4 3 4 3 3 5 4 3 5 2 7 8 5 4 3 5 5 6 4 4 9 9 13 16 9 8 11 8 8 8
3 5 5 4 6 8 8 5 6 5 5 6 5 9 7 5 3 5 4 3 2 5 4 6 5 3 3 4 4 6 9 8 9 9 9 12 12 15 12 7 6 4 8 8 9
4 4 3 4 3 6 15 12 17 4 6 6 8 7 9 12 9 8 8 5 6 3 5 2 3 3 4 4 7 13 18 9 15 16 16 16 25 21 15 8 5 6 3 6 8
3 3 3 6 5 7 11 15 11 8 12 11 8 7 6 12 8 5 6 4 6 10 6 6 6 4 7 1 3 11 13 17 11 11 17 17 23 12 13 6 6 6 4 8 9
Wind_Direction
5 3 358 354 350 352 349 349 347 346 343 340 345 346 341 339 324 204 49 292 307 316 317 273 300 263 337 289 59 44 57 259 275 344 127 244 76 343 155 289 316 252 142 167 165
359 358 354 352 350 347 345 342 342 340 337 337 341 341 339 340 307 66 259 316 311 318 334 7 9 139 352 210 333 100 140 232 246 56 8 345 34 343 343 310 283 288 102 157 162
352 350 348 348 346 345 342 337 337 335 330 329 333 335 331 328 301 134 317 326 309 305 258 298 293 282 215 146 212 198 206 183 8 108 32 331 327 299 208 256 232 229 274 209 173
346 341 339 342 339 336 334 331 330 325 322 321 325 329 322 275 18 325 333 314 298 293 296 254 268 239 206 196 217 208 266 329 182 78 30 311 333 309 229 227 217 256 246 130 165
329 329 331 330 327 327 326 323 321 318 314 310 316 324 356 58 158 330 353 325 330 306 305 3 269 277 240 310 101 210 295 333 333 172 222 253 257 248 265 264 264 285 307 244 179
322 320 319 320 321 322 322 322 323 318 306 301 305 318 147 296 246 359 350 356 355 8 27 10 354 308 269 259 162 236 287 280 276 236 232 256 255 20 268 255 235 239 256 246 225
313 316 317 318 320 321 320 320 321 321 315 303 297 273 286 190 11 1 354 187 316 13 11 6 332 34 328 284 327 318 315 307 282 214 227 27 276 226 242 311 215 234 247 259 223
303 307 312 317 318 319 318 319 322 314 317 302 307 295 266 341 312 32 344 283 324 6 13 313 342 293 320 319 295 257 177 340 342 66 236 79 272 286 268 179 233 245 241 228 231
307 302 305 308 312 313 312 313 311 290 281 265 6 164 296 339 80 330 43 344 299 267 259 297 4 265 21 103 357 287 233 201 286 92 303 190 280 271 237 229 250 242 235 219 224
329 298 300 303 309 308 313 309 280 319 265 252 277 10 310 167 134 336 283 312 347 343 345 32 61 52 2 96 221 203 234 310 287 342 316 251 266 271 260 265 261 247 236 229 221
353 346 323 313 311 314 336 344 11 347 350 221 168 258 87 345 94 206 67 357 232 170 206 219 97 209 233 201 189 139 230 262 282 289 293 247 284 287 287 252 265 248 239 223 186
356 345 328 318 317 318 319 62 89 185 307 175 243 220 114 349 242 114 13 188 177 216 165 42 224 161 113 105 143 143 161 271 286 23 341 322 290 281 293 251 248 211 139 141 122
355 349 333 327 321 335 68 61 5 17 208 255 144 64 171 40 329 140 38 330 217 227 195 173 151 119 178 152 147 219 207 221 215 324 16 325 297 318 322 56 55 56 101 119 136
351 349 338 329 347 323 51 155 22 49 41 224 209 265 63 340 224 348 27 184 237 191 179 185 46 209 168 228 143 211 213 99 50 47 265 27 278 299 325 299 207 179 114 154 152
345 342 333 338 281 347 329 357 356 69 307 19 169 23 154 194 152 217 141 11 176 61 98 230 129 118 206 316 346 201 57 72 74 84 56 336 75 271 297 337 225 192 192 180 166
340 333 326 350 326 269 291 335 53 49 251 18 129 160 149 223 201 156 176 115 125 335 3 163 173 108 136 62 62 152 93 42 56 89 35 253 125 288 19 346 357 130 188 191 173
334 329 290 290 256 329 354 24 41 220 340 277 187 186 203 176 184 189 187 176 157 89 239 47 107 62 119 108 34 82 73 339 351 8 216 209 42 245 313 312 282 145 153 124 118
330 317 272 222 314 18 53 50 185 242 247 331 183 187 211 167 210 177 168 270 227 136 139 163 309 242 219 168 157 187 153 154 208 264 253 359 238 315 323 32 37 72 82 86 90
332 285 243 215 187 83 84 144 211 209 168 168 141 164 267 156 147 280 206 207 163 179 172 163 250 284 48 11 105 175 152 150 102 40 55 237 271 276 23 30 52 49 58 93 121
312 277 233 356 16 80 103 232 222 228 130 74 191 148 194 206 130 95 218 213 165 67 96 119 102 260 252 43 10 118 155 82 12 339 286 292 281 200 25 68 71 70 86 224 207
329 291 352 351 15 120 223 220 234 247 196 183 201 233 209 179 171 213 215 303 93 122 81 131 114 223 55 212 182 39 127 82 97 159 187 246 260 211 176 173 117 161 314 311 277
300 276 356 317 182 188 228 186 223 240 163 216 153 204 195 180 182 230 220 211 156 148 166 184 138 171 223 349 312 161 176 158 135 252 232 154 269 238 199 168 279 5 272 278 281
279 248 291 356 214 221 189 274 259 210 192 198 223 206 194 189 146 207 218 143 130 165 168 182 279 51 345 350 350 211 206 186 100 72 207 151 256 25 226 230 359 346 333 342 339
265 291 307 157 315 208 223 227 252 254 220 216 232 172 134 200 212 217 209 220 171 176 142 97 157 171 182 185 136 188 198 203 152 135 199 225 273 278 287 315 333 326 331 327 320
195 233 204 226 235 246 242 214 182 231 223 201 272 192 164 199 205 211 234 151 203 209 162 139 195 174 250 206 191 217 226 201 203 210 198 256 242 265 272 319 304 279 323 331 328
196 170 307 202 220 207 224 228 244 221 195 241 226 207 192 200 182 196 174 191 194 169 167 298 207 99 295 271 248 258 248 214 227 230 242 254 265 262 288 269 281 304 312 300 286
219 292 144 225 190 209 218 230 239 222 255 236 222 222 239 231 217 187 183 204 175 152 165 145 133 94 264 315 61 286 227 207 221 220 220 232 245 282 278 209 250 268 271 265 273